Regional Weather Roundup
Issued by NWS

Home | Current Version | Previous Version | Text Only | Print | Product List | Glossary On
Versions: 1 2 3 4 5 6 7 8 9 10 11 12 13 14 15 16 17 18 19 20 21 22 23 24 25 26 27 28 29 30 31 32 33 34 35 36 37 38 39 40 41 42 43 44 45 46 47 48 49 50
000
ASUS43 KLMK 050810
RWRKY
KENTUCKY REGIONAL WEATHER ROUNDUP
NATIONAL WEATHER SERVICE LOUISVILLE KY
400 AM EDT SAT SEP 05 2015

NOTE "FAIR" INDICATES FEW OR NO CLOUDS BELOW 12,000 FEET
WITH NO SIGNIFICANT WEATHER AND/OR OBSTRUCTIONS TO VISIBILITY.

KYZ001>023-026-027-061>063-070>075-050900-
WESTERN AND SOUTH CENTRAL KENTUCKY

CITY           SKY/WX    TMP DP  RH WIND       PRES   REMARKS
PADUCAH        CLEAR     70  68  93 CALM      30.02F FOG
HENDERSON      CLEAR     72  66  83 SE3       30.03F
OWENSBORO      LGT RAIN  73  67  81 CALM      30.06R
HOPKINSVILLE   CLEAR     71  67  87 CALM      30.04S
BOWLING GREEN  MOCLDY    72  67  84 CALM      30.06S
GLASGOW        CLEAR     70  67  89 CALM      30.07S
$$

KYZ024-025-028>034-038-045-046-053-050900-
NORTH CENTRAL KENTUCKY

CITY           SKY/WX    TMP DP  RH WIND       PRES   REMARKS
LOUISVILLE/SDF MOCLDY    74  63  68 CALM      30.07S
LOUISVILLE/LOU PTCLDY    73  64  73 CALM      30.08S
FORT KNOX      PTCLDY    71  64  77 E3        30.06S
$$

KYZ035>037-039>044-047>052-055>060-089>105-050900-
NORTHEAST KENTUCKY

CITY           SKY/WX    TMP DP  RH WIND       PRES   REMARKS
LEXINGTON      PTCLDY    67  62  84 CALM      30.09S
COVINGTON      MOCLDY    65  63  93 CALM      30.09R
FRANKFORT      PTCLDY    68  63  84 CALM      30.07F
$$

KYZ054-064>069-076>088-106>120-050900-
SOUTHEAST KENTUCKY

CITY           SKY/WX    TMP DP  RH WIND       PRES   REMARKS
JACKSON        CLEAR     69  64  84 CALM      30.11F
LONDON         CLEAR     72  65  78 CALM      30.10F
SOMERSET       PTCLDY    68  66  94 CALM      30.09F
MIDDLESBORO    CLEAR     66  65  99 CALM      30.11S
MONTICELLO     SUNNY     69  69 100 CALM      30.10F
$$



USA.gov is the U.S. government's official web portal to all federal, state and local government web resources and services.